USA 169 (MILSTAR-2 4)

Last updated on Thu Aug 13 2026 00:02:57 GMT+0000 (Coordinated Universal Time)

1 27711U 03012A 26224.53593760 -.00000212 00000+0 00000+0 0 9992 2 27711 12.4334 29.3702 0097883 10.9475 265.7632 1.00273298 33516
UTC large
Height (km)
Speed (km/s)
/
Latitude / Longitude
Inclination (degrees)
Orbital Period (minutes)
Azimuth
Elevation
Range (km)
Doppler Factor

Next 0 passes for location: London (51.5072 / 0.1276)

No passes found over London.
USA 169 (MILSTAR-2 4)